Location: Groß Lobke
(52.2707°N, 10.0115°E)
Time: 03:18:48
(UTC+00:00)

Cosmos 1844 Rocket - Pass Details

Date: 11 December 2025
Orbit: 825 x 842 km, 71.0° (Epoch: 18 May)

Event Time Altitude Azimuth Distance (km) Brightness Sun altitude
Rises 18:17:39 0° 329° (NNW) 3,399 6.2 -27.7°
Reaches altitude 10° 18:20:07 10° 332° (NNW) 2,463 5.4 -28.1°
Enters shadow 18:24:16 49° 351° (N) 1,081 3.2 -28.8°
